Location: Holbach
(51.5399°N, 10.6036°E)
Time: 08:34:54
(UTC+00:00)

Cosmos 1092 Rocket - Pass Details

Date: 26 June 2021
Orbit: 955 x 994 km, 82.9° (Epoch: 28 July)

Event Time Altitude Azimuth Distance (km) Brightness Sun altitude
Exits shadow 00:12:14 19° 175° (S) 2,120 5.2 -14.2°
Maximum altitude 00:16:47 71° 95° (E) 1,016 4.1 -14.1°
Drops below altitude 10° 00:22:56 10° 14° (NNE) 2,709 7.8 -13.9°
Sets 00:25:28 0° 12° (NNE) 3,665 9.0 -13.8°
